Powrót do katalogu

STARLINK-2449

AktywnyŁącznośćVLEO
NORAD 48112·PAYLOAD·🇺🇸 United States

Wystrzelony Apr 7, 2021 z Cape Canaveral Space Force Station

Loading…

Następne Przeloty (najbliższe 24 godziny)

TLE

ŚwieżeSource: CelesTrak SupGP

Epoka: Sep 14, 2026, 21:05 UTC

1 48112C 21027W   26257.87895833 -.00013392  00000+0 -43070-3 0  2574
2 48112  53.1607   7.3371 0001293  78.3825 190.1591 15.31705688    10

Śledź STARLINK-2449 w czasie rzeczywistym z AllMySat

Download on the App Store